GFSCGP_sfc_temp_336.txt.gz
Temp
44 35 28 33 35 37 35 33 32 36 38 35 34 34 39 41 37 37 37 38 38 39 41 42 43 42 43 45 46 47 46 45 43 41 40 40 41 41 41 41 43 43 42 43
37 32 39 40 40 37 36 33 32 36 37 34 32 34 38 39 38 38 38 36 37 38 39 41 41 40 39 41 43 45 45 44 43 42 41 41 40 40 41 42 43 43 43 42
33 36 42 41 35 36 33 32 31 31 34 30 28 30 33 36 37 37 36 35 34 35 37 38 39 38 37 38 38 44 44 44 43 44 42 41 41 41 41 41 41 42 42 42
32 38 37 35 32 31 31 32 32 31 24 20 27 18 31 32 33 34 35 34 33 33 35 36 36 37 36 37 39 42 43 43 44 43 42 41 39 39 39 39 39 40 41 40
31 32 32 31 31 32 30 32 30 27 16 17 20 11 27 29 30 31 33 33 33 33 32 33 34 36 36 36 36 38 40 41 41 41 41 39 39 38 38 38 38 38 38 39
31 33 32 31 33 32 32 28 26 22 13 8 7 12 22 28 31 31 31 32 33 33 33 32 33 35 35 35 35 36 37 37 38 39 38 38 37 37 36 36 35 35 36 36
29 29 31 32 30 32 29 18 9 12 8 13 -1 11 26 31 32 31 34 32 31 32 32 32 32 33 33 33 34 36 36 35 36 36 35 35 35 35 34 34 33 33 33 34
14 19 24 31 28 25 25 18 12 6 9 12 2 12 28 29 29 29 31 31 31 30 31 31 32 32 32 32 32 33 34 33 34 34 33 33 34 33 33 32 32 32 31 32
16 21 28 30 30 28 25 14 22 5 -8 2 11 20 30 28 25 27 28 28 28 29 30 31 31 31 31 31 31 32 32 32 32 32 32 31 31 31 30 30 30 30 31 35
24 17 21 28 29 28 24 26 15 10 7 2 8 0 23 22 21 21 26 26 27 29 30 30 30 30 30 30 31 31 32 32 32 32 30 31 31 31 30 30 30 30 30 31
23 17 20 26 15 15 17 14 14 14 14 6 3 14 18 18 12 16 19 25 22 24 28 29 29 30 30 31 31 32 31 32 32 32 31 31 31 31 30 30 30 30 30 30
29 24 13 18 22 24 25 19 23 14 9 8 10 13 18 11 6 4 19 21 23 24 27 26 28 28 29 29 29 30 32 31 32 31 31 31 31 31 30 30 30 30 30 30
30 16 8 20 21 23 19 24 22 14 18 10 8 20 14 5 10 14 16 23 21 23 22 22 23 25 27 28 29 29 29 30 32 31 30 31 30 30 30 30 30 31 30 30
36 25 16 17 18 13 16 20 22 17 5 19 15 26 28 30 16 21 21 19 22 20 19 19 17 21 24 24 23 25 28 29 29 30 30 30 30 30 30 30 30 30 30 29
28 13 17 16 14 12 16 20 17 14 20 14 26 11 26 30 29 27 12 16 19 21 16 17 17 18 19 18 20 21 21 23 24 24 22 26 29 29 29 29 29 30 30 30
27 11 10 9 19 20 15 21 21 19 21 14 21 20 28 24 2 13 20 20 20 21 21 17 17 17 18 19 20 20 20 17 18 17 20 20 21 23 24 27 28 28 28 28
17 8 3 5 9 9 11 12 15 13 9 15 11 20 2 23 25 16 22 16 19 21 21 16 17 19 17 18 19 18 20 12 10 13 17 19 17 19 20 21 23 24 25 26
14 5 3 4 1 1 21 20 20 16 21 15 16 22 21 21 22 17 20 18 22 24 19 17 15 12 16 11 11 11 8 8 9 10 17 19 18 17 20 20 21 20 22 21
26 16 4 1 -3 12 24 20 19 17 20 26 22 22 24 23 22 27 30 23 25 23 21 18 17 16 12 11 18 14 13 12 10 17 19 19 18 19 20 20 21 22 20 22
20 26 12 -5 -2 1 21 20 23 24 12 25 26 27 26 27 20 27 34 30 30 27 28 29 28 27 27 30 29 23 22 19 22 23 22 22 21 20 20 22 22 23 19 21
14 18 12 8 5 10 23 25 25 10 18 27 27 27 26 22 26 31 33 32 30 30 30 30 29 29 30 31 30 28 26 23 27 27 24 22 22 22 21 22 20 20 18 20
13 10 5 7 2 7 23 22 18 23 26 27 27 26 26 27 28 29 30 31 31 30 31 31 29 29 30 30 28 27 26 29 27 26 25 25 25 26 27 23 23 21 19 17
13 18 10 16 18 24 26 25 28 28 25 25 24 26 25 24 25 26 27 29 30 31 33 33 30 28 27 28 27 25 28 27 25 22 22 21 23 25 25 22 23 22 21 20
20 18 15 17 20 23 25 27 27 27 25 26 27 25 25 23 24 24 25 26 28 30 30 30 26 24 25 24 24 25 24 23 18 18 18 20 19 21 20 22 22 21 21 20
20 15 11 14 18 19 22 25 26 26 26 24 25 24 23 23 23 24 24 25 27 28 30 30 27 27 26 24 22 21 23 20 19 16 17 18 19 18 19 20 21 22 23 24
16 18 16 14 21 21 23 25 23 22 22 24 22 21 23 23 22 23 23 25 25 26 27 27 25 24 25 23 22 21 21 19 15 16 18 19 19 19 19 19 20 27 29 30

GFSCGP_sfc_temp_339.txt.gz
Temp
42 34 29 33 35 36 35 35 34 37 38 37 36 35 41 43 43 42 42 41 42 43 45 45 44 44 44 46 47 49 49 48 47 46 46 46 47 47 47 47 47 48 47 47
36 32 37 40 39 37 36 33 32 36 37 36 32 34 40 40 41 41 41 40 40 42 42 43 43 42 41 42 43 47 48 47 47 47 46 47 47 46 47 47 47 47 47 47
33 34 40 39 33 34 31 31 29 31 34 31 29 33 35 39 38 39 39 40 40 40 40 40 40 40 40 40 40 44 47 46 46 46 46 45 46 46 47 46 46 45 46 46
32 36 36 34 32 31 30 32 33 31 26 22 27 21 32 33 34 36 37 36 37 38 39 39 39 39 39 39 40 44 45 45 46 46 46 46 45 45 44 44 44 44 44 44
31 31 31 30 31 33 30 32 30 27 18 19 21 16 31 31 35 36 35 35 35 36 37 38 38 38 39 38 38 41 43 43 44 44 45 44 43 43 43 43 42 42 43 43
31 33 31 31 34 33 33 28 26 22 15 11 7 13 28 32 33 33 35 35 35 35 36 37 38 38 38 38 38 39 39 39 41 41 41 42 41 41 41 40 40 40 41 41
29 30 31 32 31 32 29 19 11 14 10 14 -0 13 27 32 33 33 33 33 33 34 34 35 35 36 37 36 37 39 38 37 39 39 39 39 39 39 39 38 38 38 38 39
14 20 24 31 28 26 25 18 13 8 10 14 2 13 30 31 32 31 31 31 33 33 33 34 35 35 36 36 36 36 37 36 37 37 36 37 37 37 37 37 36 36 37 37
16 22 28 31 30 28 24 15 22 5 -7 4 12 21 32 32 27 29 30 31 31 31 32 33 34 34 34 34 35 35 36 35 35 35 35 35 35 35 35 35 35 35 35 37
24 18 20 28 29 28 24 26 16 11 8 5 9 3 24 22 22 24 28 26 28 31 31 32 32 33 33 33 34 34 35 35 35 35 35 35 35 34 34 34 35 34 34 35
22 17 21 26 15 15 17 14 15 15 15 8 4 17 21 17 14 18 21 26 22 25 29 30 31 32 32 32 32 33 33 34 34 35 34 34 34 34 34 34 34 34 34 34
29 24 14 21 22 24 24 19 22 15 10 7 10 13 22 16 9 6 19 24 25 23 26 27 29 31 31 31 31 32 33 33 34 33 33 34 34 34 33 33 34 34 33 34
30 16 9 21 21 22 18 23 21 14 18 11 10 18 14 6 12 13 16 24 24 24 24 24 25 28 30 31 31 31 32 32 33 32 32 32 32 32 32 33 33 34 33 33
35 25 16 16 17 12 16 19 21 17 6 16 17 26 30 27 23 27 29 24 20 21 21 21 20 22 27 28 28 29 30 30 31 31 31 31 31 32 32 33 33 33 33 33
28 13 16 16 13 11 15 18 17 15 18 14 26 11 25 27 22 22 18 17 20 24 26 27 22 22 21 23 24 25 24 26 27 27 26 28 31 31 31 31 31 31 31 31
26 11 10 10 18 19 15 21 20 18 20 12 19 18 9 15 7 15 23 22 20 24 26 30 28 19 19 20 22 22 22 22 22 21 23 24 23 24 24 28 29 30 30 30
16 9 4 6 9 9 11 14 14 13 8 13 10 16 7 16 21 25 27 24 22 26 26 30 28 23 19 18 19 19 21 15 15 18 19 20 19 20 21 22 25 25 27 28
15 4 5 5 1 1 21 20 19 17 19 9 14 17 18 17 17 22 22 18 22 27 29 30 28 21 17 13 12 13 8 12 15 16 19 21 19 19 20 21 23 24 25 24
26 13 3 1 -2 12 22 18 19 17 18 24 21 21 23 24 25 26 29 28 30 30 30 30 27 22 16 17 18 14 15 17 16 19 22 23 20 20 21 22 23 25 23 24
21 24 12 -2 -4 1 19 19 23 23 11 20 23 23 22 24 17 23 30 30 30 32 33 32 33 30 28 29 29 23 21 22 22 25 25 24 23 22 21 23 23 25 23 24
15 17 12 8 2 8 21 24 24 10 15 23 23 23 22 19 22 26 29 28 30 31 31 33 33 31 32 33 31 29 28 25 29 29 26 24 23 23 24 24 23 23 22 22
14 9 5 4 1 5 21 21 16 20 23 24 23 23 22 24 25 26 27 27 28 28 29 31 30 31 34 34 31 29 28 31 29 27 26 25 25 26 26 24 24 22 20 19
13 19 12 16 15 21 23 22 25 26 23 23 24 25 25 23 24 25 24 25 26 26 27 28 28 29 31 31 29 27 30 29 25 23 23 22 23 24 25 23 23 22 22 20
19 19 14 15 17 20 22 25 26 25 25 27 27 25 25 23 24 24 24 24 25 25 25 26 25 26 28 30 30 29 28 27 23 22 20 20 20 21 21 22 23 22 21 20
20 15 9 12 15 17 19 23 26 27 26 25 25 23 23 22 22 23 22 23 24 24 24 24 23 23 25 26 26 28 28 22 21 20 19 19 20 20 20 20 21 21 23 23
17 17 15 13 21 19 22 25 25 22 22 23 22 21 22 22 21 22 21 23 22 22 23 21 22 22 23 24 24 25 24 21 20 19 19 19 19 19 18 18 19 26 28 29

GFSCGP_sfc_temp_342.txt.gz
Temp
52 46 41 44 45 46 46 45 45 49 46 47 46 48 56 61 57 57 59 57 55 55 55 54 54 55 55 56 56 58 58 59 58 57 57 57 58 58 58 58 56 56 56 55
47 40 45 46 46 45 46 42 43 48 45 46 45 47 56 54 52 53 55 57 54 53 53 53 53 54 53 53 53 55 56 58 57 58 58 60 60 59 59 57 56 55 54 54
44 42 45 45 43 43 41 39 39 37 43 40 44 49 51 53 51 50 51 51 52 51 50 51 51 51 52 51 50 52 54 56 56 56 55 55 55 56 55 54 54 54 53 52
41 44 42 43 39 39 38 39 38 36 38 35 40 37 48 49 50 50 50 52 52 51 50 49 49 50 49 48 50 51 52 53 54 55 54 54 56 55 56 55 54 52 52 52
37 39 39 38 37 39 37 38 37 34 33 34 35 33 52 48 50 50 50 49 49 49 48 49 48 47 48 48 48 50 51 51 51 53 54 54 53 55 55 53 51 51 50 50
38 41 40 37 39 39 39 36 35 34 32 32 21 27 47 48 44 48 50 49 48 48 48 48 48 48 48 49 49 49 48 48 49 50 51 52 52 51 50 50 50 50 51 50
39 36 39 38 38 40 38 33 33 32 31 33 15 26 43 45 45 44 43 45 46 47 47 48 48 48 48 47 47 48 47 47 47 48 48 48 49 49 50 49 48 47 48 48
33 35 32 36 35 32 32 31 33 27 29 33 15 28 43 42 43 43 45 46 47 47 47 47 47 47 48 47 47 46 46 46 46 46 46 46 46 48 48 47 47 47 47 47
34 34 34 34 35 34 32 32 32 20 7 23 31 35 43 40 38 43 44 46 44 45 45 45 46 47 46 46 46 46 45 45 45 45 45 45 45 45 45 44 44 45 44 44
33 32 28 32 35 34 31 33 29 28 25 24 30 23 39 35 33 34 38 37 37 41 42 43 45 46 46 46 46 45 44 44 45 45 45 45 44 44 44 44 43 43 43 42
33 31 32 32 29 31 30 30 26 27 28 27 25 33 34 33 30 28 31 34 33 33 37 38 40 42 44 45 45 44 44 44 44 44 44 43 43 43 42 42 43 43 42 42
36 33 31 32 32 34 32 31 33 31 26 24 22 28 32 29 27 26 29 32 35 33 33 34 38 41 43 44 44 44 44 43 44 45 43 42 42 42 41 42 43 42 41 42
38 31 29 32 29 31 27 30 28 26 28 26 26 33 24 28 32 32 28 31 32 31 32 33 36 38 39 40 41 42 43 43 43 43 41 41 41 41 41 42 42 42 41 41
39 32 29 32 32 28 27 28 29 28 26 30 28 31 34 30 28 30 30 31 29 30 32 34 34 35 37 35 33 36 40 42 41 41 40 40 40 41 41 41 41 40 41 40
36 27 25 27 25 21 24 25 25 21 27 25 29 24 29 28 27 27 27 28 30 31 32 32 32 33 34 33 31 30 32 35 36 36 33 34 37 39 39 38 38 39 39 39
32 27 19 21 23 24 20 26 27 22 25 20 23 22 26 26 24 28 29 30 29 29 29 30 32 33 32 31 30 29 29 30 31 31 31 32 32 33 32 34 36 37 36 37
27 23 21 22 16 18 20 24 25 24 22 24 22 25 24 25 25 26 28 27 27 28 29 29 31 31 31 31 30 28 28 29 27 27 28 28 29 29 29 29 30 30 32 34
19 21 19 20 16 18 30 30 30 27 25 22 22 24 25 25 26 28 29 28 28 28 29 30 30 31 32 33 29 27 24 24 25 26 27 28 28 27 28 27 27 29 31 30
30 26 20 17 14 23 32 26 28 29 24 26 24 25 27 27 32 35 35 34 31 31 31 31 32 33 33 33 33 29 26 26 25 25 26 28 27 26 27 26 27 29 30 30
25 26 24 11 15 19 26 29 33 32 21 26 26 26 26 27 21 27 35 35 34 35 35 35 36 36 36 37 38 35 30 28 27 28 28 29 29 27 27 28 28 30 30 29
20 22 19 19 16 21 27 29 31 19 21 27 28 28 27 24 28 32 34 33 34 33 34 35 34 32 33 35 35 33 34 32 34 34 30 29 29 28 28 28 29 29 28 28
22 18 17 14 15 14 27 27 23 24 28 29 29 29 27 29 30 30 30 30 30 31 32 33 31 30 32 32 32 31 31 33 33 30 28 29 30 30 30 28 29 27 27 26
21 28 26 24 25 25 28 26 30 30 28 28 29 29 29 26 27 28 27 28 29 29 29 30 29 28 29 30 30 26 29 30 31 30 28 27 29 29 29 28 27 27 27 25
25 24 25 24 23 24 26 29 30 30 28 30 30 28 27 25 26 24 25 25 26 27 26 27 25 24 25 27 27 27 27 28 27 26 27 28 26 27 27 27 27 27 26 26
27 24 22 21 20 22 24 28 30 30 30 28 28 27 25 25 24 25 24 24 25 25 25 25 24 23 23 25 25 25 25 25 24 24 25 26 26 26 26 26 26 25 27 27
24 25 23 23 24 24 25 29 29 26 25 26 24 23 24 24 23 24 23 24 24 23 25 23 23 23 23 23 23 23 23 23 22 23 25 26 25 26 25 25 25 29 29 29

GFSCGP_sfc_temp_345.txt.gz
Temp
57 50 45 49 51 51 51 50 49 54 51 49 54 54 59 64 64 62 64 65 61 60 60 59 59 60 59 60 60 60 60 63 63 61 59 59 59 60 61 61 60 59 59 58
52 44 49 51 52 50 51 46 45 51 51 48 50 50 59 56 56 56 57 59 59 59 59 58 58 59 58 57 57 58 59 61 62 60 61 62 62 62 62 61 60 59 57 56
47 46 50 49 47 48 46 42 42 40 46 49 47 54 55 56 56 56 57 58 59 55 54 56 55 56 56 54 54 55 56 57 60 60 59 58 58 58 57 57 56 56 56 55
45 50 47 47 43 44 41 43 42 39 39 38 46 41 53 54 53 54 54 55 54 55 56 55 54 53 53 52 54 54 55 56 57 58 56 56 56 56 59 59 57 55 54 54
39 42 43 40 39 43 40 42 40 39 34 36 39 36 52 54 50 49 52 53 53 54 54 53 53 53 53 54 52 54 55 55 55 55 55 55 55 57 59 57 54 53 53 53
41 45 43 41 43 42 43 39 40 39 35 32 24 32 47 46 45 47 50 51 52 53 54 55 55 55 54 54 53 53 53 53 53 53 54 53 53 55 54 53 52 52 53 53
43 40 43 42 42 44 42 33 34 34 33 35 22 31 43 46 47 46 47 50 51 52 51 52 52 52 52 52 51 51 51 50 52 51 52 52 52 53 52 53 52 51 50 50
35 36 34 40 38 34 36 33 34 27 32 36 22 30 41 44 48 49 49 49 48 48 49 49 49 50 51 51 51 51 50 49 50 50 50 51 50 49 51 51 50 50 49 50
37 38 38 37 39 37 36 35 37 27 17 26 38 40 44 42 40 43 43 44 42 44 45 46 47 48 48 49 50 50 49 48 49 49 49 48 49 48 48 48 48 48 48 48
38 33 32 34 38 37 34 37 30 31 26 26 33 31 40 32 32 33 36 36 37 40 42 42 44 46 48 49 50 49 49 47 48 48 49 48 48 47 47 47 45 46 46 46
38 33 32 35 31 33 32 32 30 29 32 29 28 36 31 31 30 29 31 35 33 33 38 39 42 45 47 48 48 47 48 48 46 47 47 46 46 46 45 44 45 45 45 45
40 36 32 34 37 38 37 33 37 32 29 30 26 31 33 31 31 31 30 33 35 33 35 36 40 43 43 45 45 44 44 45 46 48 47 45 45 44 43 43 43 44 43 43
41 33 30 33 32 35 30 35 34 30 32 28 27 34 30 32 32 32 31 32 32 32 34 34 36 37 39 40 40 41 40 40 41 44 45 44 43 43 42 43 44 44 43 43
41 36 31 33 31 31 30 33 33 30 27 31 32 33 31 30 27 28 29 30 32 32 31 32 32 33 35 34 35 36 37 37 37 38 41 41 41 42 43 43 43 43 42 41
38 29 31 33 33 29 27 27 30 26 28 26 30 28 32 27 25 26 28 32 30 29 30 30 31 32 32 32 33 33 34 34 34 34 34 36 38 40 40 41 41 40 39 39
37 29 23 23 29 29 23 29 30 25 27 26 27 24 25 27 28 28 28 28 27 28 30 30 31 31 31 31 32 33 33 32 32 30 30 32 34 33 32 33 34 36 37 37
30 29 25 26 22 21 22 27 29 29 27 27 20 24 26 24 24 25 27 28 27 29 29 29 30 30 30 31 32 31 32 33 29 27 28 29 31 31 31 32 31 31 33 34
25 26 26 23 21 21 30 35 33 29 28 25 25 24 26 26 27 28 31 29 29 29 29 30 29 29 31 32 31 32 32 32 31 29 28 28 29 29 29 29 29 30 31 30
34 30 25 20 22 29 36 30 31 30 29 29 27 28 29 30 32 35 37 36 32 32 31 31 31 31 32 31 31 30 30 30 30 31 29 29 29 28 28 28 29 29 29 30
27 28 26 17 17 21 30 32 35 34 23 28 28 28 28 29 21 27 35 35 34 34 35 34 35 35 34 34 34 31 28 28 29 30 31 32 30 29 28 29 30 31 31 30
21 23 20 22 20 26 31 31 34 20 23 29 29 29 28 25 28 32 33 33 34 34 33 34 34 32 32 33 32 29 29 27 30 31 30 30 31 30 30 29 30 30 29 29
25 21 20 22 20 17 30 29 25 26 30 29 30 30 28 29 30 30 31 30 31 31 31 32 30 30 31 31 30 27 26 29 29 28 27 28 29 29 29 28 29 28 28 26
23 32 31 28 29 27 30 29 31 31 29 30 29 30 29 27 27 28 27 27 28 29 29 29 28 27 28 29 28 25 26 27 25 24 23 25 27 28 28 29 28 28 27 26
29 31 28 27 27 27 28 30 31 32 30 31 30 29 28 26 26 25 25 25 25 26 26 26 25 24 24 26 26 25 25 25 22 21 23 24 25 26 27 28 28 28 27 27
30 28 27 26 24 25 27 28 31 31 31 28 28 27 26 25 24 24 24 24 25 25 25 25 24 23 23 25 24 24 23 22 20 21 22 23 25 26 26 27 27 27 28 29
29 30 26 26 27 26 27 31 31 27 26 26 24 24 25 24 23 24 23 24 24 23 24 23 23 23 23 24 23 22 22 21 19 19 21 22 22 24 24 25 25 30 30 31